Location: Unspecified
(0.0000°N, 0.0000°E)
Time: 12:38:35
(UTC+00:00)

Courier 1B Rocket - All Passes

Search period start: 07 October 2022 00:00
Search period end: 17 October 2022 00:00
Orbit: 920 x 1202 km, 28.2° (Epoch: 06 October)

Date Brightness Start Highest point End Pass type
(mag) Time Alt. Az. Time Alt. Az. Time Alt. Az.
07 Oct - 01:49:31 10° WNW 01:55:40 58° SSW 02:02:08 10° SE visible
07 Oct - 03:45:32 10° WSW 03:49:36 17° SSW 03:53:51 10° SSE visible
07 Oct - 09:34:06 10° S 09:37:07 12° SSE 09:40:11 10° SE daylight
07 Oct - 11:24:48 10° SW 11:31:51 36° SSE 11:38:52 10° E daylight
07 Oct - 13:18:00 10° WSW 13:25:51 74° NNW 13:33:23 10° NE daylight
07 Oct - 15:14:00 10° WNW 15:19:50 23° NNW 15:25:26 10° NNE daylight
07 Oct - 22:56:12 10° NNW 23:01:08 24° NNE 23:06:02 10° E night (unlit)
08 Oct - 00:48:22 10° WNW 00:54:37 89° SSW 01:01:04 10° ESE night (unlit)
08 Oct - 02:43:12 10° WSW 02:48:14 24° SSW 02:53:29 10° SSE visible
08 Oct - 10:24:09 10° SSW 10:30:20 26° SSE 10:36:34 10° E daylight
08 Oct - 12:16:36 10° SW 12:24:28 77° SSE 12:32:11 10° ENE daylight
08 Oct - 14:11:29 10° W 14:18:23 34° NNW 14:25:02 10° NE daylight
08 Oct - 16:11:17 10° NW 16:12:56 11° NNW 16:14:34 10° N daylight
08 Oct - 21:56:07 10° NNW 21:59:52 16° NNE 22:03:32 10° ENE night (unlit)
08 Oct - 23:47:27 10° NW 23:53:36 59° NNE 23:59:47 10° ESE night (unlit)
09 Oct - 01:41:21 10° W 01:47:01 36° SSW 01:52:54 10° SE night (unlit)
09 Oct - 03:39:42 10° SSW 03:41:17 11° SSW 03:42:53 10° S visible
09 Oct - 09:23:50 10° SSW 09:28:43 18° SSE 09:33:40 10° ESE daylight
09 Oct - 11:15:29 10° SW 11:23:03 54° SSE 11:30:38 10° ENE daylight
09 Oct - 13:09:25 10° WSW 13:16:58 50° NNW 13:24:19 10° NE daylight
09 Oct - 15:06:47 10° WNW 15:11:15 16° NNW 15:15:37 10° NNE daylight
09 Oct - 20:56:56 10° N 20:58:25 11° NNE 20:59:53 10° NE night (unlit)
09 Oct - 22:46:45 10° NW 22:52:32 37° NNE 22:58:15 10° E night (unlit)
10 Oct - 00:39:50 10° WNW 00:45:55 55° SSW 00:52:08 10° SE night (unlit)
10 Oct - 02:36:08 10° WSW 02:39:47 16° SSW 02:43:31 10° SSE visible
10 Oct - 08:24:14 10° S 08:27:00 12° SSE 08:29:49 10° SE daylight
10 Oct - 10:14:39 10° SW 10:21:37 37° SSE 10:28:42 10° E daylight
10 Oct - 12:07:45 10° WSW 12:15:34 73° NNW 12:23:19 10° NE daylight
10 Oct - 14:03:41 10° WNW 14:09:40 24° NNW 14:15:31 10° NNE daylight
10 Oct - 21:46:14 10° NNW 21:51:22 25° NNE 21:56:23 10° E night (unlit)
10 Oct - 23:38:36 10° WNW 23:44:54 86° SSW 23:51:11 10° ESE night (unlit)
11 Oct - 01:33:39 10° WSW 01:38:27 23° SSW 01:43:22 10° SSE night (unlit)
11 Oct - 09:14:06 10° SSW 09:20:08 25° SSE 09:26:19 10° E daylight
11 Oct - 11:06:25 10° SW 11:14:11 79° SSE 11:22:02 10° ENE daylight
11 Oct - 13:01:13 10° W 13:08:10 34° NNW 13:15:01 10° NE daylight
11 Oct - 15:00:38 10° NW 15:02:52 11° NNW 15:05:04 10° N daylight
11 Oct - 20:45:58 10° NNW 20:50:04 17° NNE 20:54:04 10° ENE visible
11 Oct - 22:37:35 10° NW 22:43:52 61° NNE 22:50:01 10° ESE night (unlit)
12 Oct - 00:31:41 10° W 00:37:16 34° SSW 00:42:56 10° SE night (unlit)
12 Oct - 08:13:56 10° SSW 08:18:34 17° SSE 08:23:21 10° ESE daylight
12 Oct - 10:05:23 10° SW 10:12:47 54° SSE 10:20:25 10° ENE daylight
12 Oct - 11:59:14 10° WSW 12:06:42 49° NNW 12:14:12 10° NE daylight
12 Oct - 13:56:28 10° WNW 14:01:06 17° NNW 14:05:41 10° NNE daylight
12 Oct - 19:46:12 10° N 19:48:35 12° NNE 19:50:55 10° NE visible
12 Oct - 21:36:45 10° NW 21:42:47 39° NNE 21:48:35 10° E night (unlit)
12 Oct - 23:30:03 10° WNW 23:36:12 53° SSW 23:42:17 10° SE night (unlit)
13 Oct - 01:26:39 10° WSW 01:29:59 15° SSW 01:33:22 10° S night (unlit)
13 Oct - 07:14:38 10° S 07:16:56 12° SSE 07:19:17 10° SE daylight
13 Oct - 09:04:39 10° SW 09:11:24 37° SSE 09:18:25 10° E daylight
13 Oct - 10:57:38 10° WSW 11:05:17 72° NNW 11:13:07 10° NE daylight
13 Oct - 12:53:28 10° WNW 12:59:28 24° NNW 13:05:26 10° NNE daylight
13 Oct - 20:36:05 10° NNW 20:41:34 27° NNE 20:46:50 10° E visible
13 Oct - 22:28:42 10° WNW 22:35:10 84° SSW 22:41:26 10° ESE night (unlit)
14 Oct - 00:23:59 10° WSW 00:28:42 22° SSW 00:33:25 10° SSE night (unlit)
14 Oct - 08:04:13 10° SSW 08:09:59 25° SSE 08:15:59 10° E daylight
14 Oct - 09:56:23 10° SW 10:03:55 80° SSE 10:11:45 10° ENE daylight
14 Oct - 11:51:05 10° W 11:57:55 34° NNW 12:04:50 10° NE daylight
14 Oct - 13:50:16 10° NW 13:52:44 12° NNW 13:55:10 10° N daylight
14 Oct - 19:35:38 10° NNW 19:40:13 19° NNE 19:44:37 10° ENE visible
14 Oct - 21:27:33 10° NW 21:34:07 63° NNE 21:40:21 10° ESE visible
14 Oct - 23:21:52 10° W 23:27:32 33° SSW 23:33:06 10° SE night (unlit)
15 Oct - 07:04:11 10° SSW 07:08:30 17° SSE 07:12:58 10° ESE daylight
15 Oct - 08:55:27 10° SW 09:02:34 55° SSE 09:10:06 10° ENE daylight
15 Oct - 10:49:10 10° WSW 10:56:26 48° NNW 11:03:55 10° NE daylight
15 Oct - 12:46:18 10° WNW 12:50:55 17° NNW 12:55:33 10° NNE daylight
15 Oct - 18:35:30 10° N 18:38:41 13° NNE 18:41:46 10° NE visible
15 Oct - 20:26:36 10° NW 20:32:59 41° NNE 20:39:00 10° E visible
15 Oct - 22:20:07 10° WNW 22:26:28 52° SSW 22:32:33 10° SE night (unlit)
16 Oct - 00:17:01 10° SW 00:20:13 14° SSW 00:23:25 10° S night (unlit)
16 Oct - 06:05:19 10° S 06:06:56 11° SSE 06:08:35 10° SE daylight
16 Oct - 07:54:48 10° SW 08:01:15 36° SSE 08:08:05 10° E daylight
16 Oct - 09:47:40 10° WSW 09:55:02 70° NNW 10:02:48 10° NE daylight
16 Oct - 11:43:24 10° WNW 11:49:15 23° NNW 11:55:11 10° NNE daylight
16 Oct - 19:25:48 10° NNW 19:31:43 28° NNE 19:37:18 10° E visible
16 Oct - 21:18:38 10° WNW 21:25:24 82° SSW 21:31:46 10° ESE visible
16 Oct - 23:14:09 10° WSW 23:18:56 22° SSW 23:23:38 10° SSE night (unlit)
